Regional Weather Roundup
Issued by NWS San Angelo, TX

Home | Current Version | Previous Version | Text Only | Print | Product List | Glossary On
Versions: 1 2 3 4 5 6 7 8 9 10 11 12 13 14 15 16 17 18 19 20 21 22 23 24 25 26 27 28 29 30 31 32 33 34 35 36 37 38 39 40 41 42 43 44 45 46 47 48 49 50
000
ASUS44 KSJT 181110
RWRSJT
WEST CENTRAL TEXAS REGIONAL WEATHER ROUNDUP
NATIONAL WEATHER SERVICE SAN ANGELO TX
600 AM CDT SAT APR 18 2015

NOTE: "FAIR" INDICATES FEW OR NO CLOUDS BELOW 12,000 FEET WITH NO
SIGNIFICANT WEATHER AND/OR OBSTRUCTIONS TO VISIBILITY.

TXZ049-054-064>066-071>073-076>078-098-099-113-114-127-128-139-140-
154-155-168>170-181200
...LOCATIONS ACROSS WEST CENTRAL TEXAS...

CITY           SKY/WX    TMP DP  RH WIND       PRES   REMARKS
SAN ANGELO     CLOUDY    58  56  93 W7        29.94F
ABILENE        CLOUDY    61  58  90 S8        29.94R
DYESS AFB      CLOUDY    60  59  94 SW5       29.93R
JUNCTION       CLOUDY    60  59  96 W3        29.92R
SWEETWATER     PTCLDY    56  56 100 S6        29.96F
BROWNWOOD      FOG       55  55 100 CALM      29.92S VSB<1/4
COLEMAN        PTSUNNY   61  61 100 CALM      29.93S FOG
SONORA         CLOUDY    59  59 100 CALM      29.99R
OZONA          CLOUDY    61  57  88 SE5       29.97R
BRADY          NOT AVBL
$$

TEXAS PANHANDLE/OKLAHOMA PANHANDLE

CITY           SKY/WX    TMP DP  RH WIND       PRES   REMARKS
AMARILLO       FOG       45  45 100 SW6       29.94F VSB<1/4
BORGER         MOCLDY    53  51  93 W6        29.92F FOG
CANADIAN       PTCLDY    55  55  97 E3        29.91S
DALHART        PTCLDY    35  28  75 W7        29.95F WCI  29
DUMAS          SUNNY     36  25  63 W12       29.93S WCI  28
GUYMON         NOT AVBL
HEREFORD       SUNNY     32  25  76 W7        29.96F WCI  26
PAMPA          FOG       53  52  98 S8        29.94S VSB 1
PERRYTON       CLEAR     51  49  93 S6        29.90F
$$

SOUTHERN PANHANDLE/SOUTH PLAINS/ROLLING PLAINS

CITY           SKY/WX    TMP DP  RH WIND       PRES   REMARKS
LUBBOCK        FOG       51  51 100 SW3       29.93S VSB 1/16
SNYDER         PTCLDY   N/A N/A N/A S6        29.93F
CHILDRESS      FOG       53  53 100 E5        29.91F VSB 1/4
SEMINOLE       MOSUNNY   43  34  70 NW8       29.96S WCI  38
$$

PERMIAN BASIN

CITY           SKY/WX    TMP DP  RH WIND       PRES   REMARKS
MIDLAND        PTCLDY    54  52  93 SE8       29.93F
ODESSA         MOCLDY    52  43  71 S6        29.94F
WINK           CLOUDY    56  22  26 S7        29.93R
$$

FAR WEST/SOUTHWEST MOUNTAINS/TRANS PECOS

CITY           SKY/WX    TMP DP  RH WIND       PRES   REMARKS
ALPINE         MOSUNNY   48  40  74 SW5       30.07S
DRYDEN           N/A     64  61  90 E8        29.91S
EL PASO        PTCLDY    51  13  21 S8        29.99F
FORT STOCKTON  PTCLDY    58  29  33 S3        29.94F
GUADALUPE PASS CLEAR     49   8  19 SW8       30.03S
MARFA          CLOUDY    45  36  70 NE5       30.04S
PECOS          MOSUNNY   48  29  49 SE5       29.93F
$$

DALLAS/FORT WORTH METROPLEX

CITY           SKY/WX    TMP DP  RH WIND       PRES   REMARKS
DFW AIRPORT    MOCLDY    61  60  97 NW6       29.88S
FTW MEACHAM    PTCLDY    60  59  96 NE3       29.89F FOG
DAL-EXECUTIVE  PTCLDY    60  59  96 W3        29.88S FOG
GRAND PRAIRIE  PTCLDY    62  62 100 CALM      29.90F
ADDISON        MOCLDY    63  59  88 CALM      29.89F
MESQUITE       PTSUNNY   61  60  97 N3        29.89S
LANCASTER        N/A     57  56  94 CALM      29.89S FOG
$$

NORTH CENTRAL TEXAS

CITY           SKY/WX    TMP DP  RH WIND       PRES   REMARKS
SHRMAN/DENISON CLOUDY    62  61  97 CALM      29.91S
GAINESVILLE    CLOUDY    60  58  94 E7        29.91F
BRIDGEPORT     SUNNY     58  58 100 CALM      29.91S FOG
DENTON         CLOUDY    61  60  97 NW5       29.89F
WAXAHACHIE     CLOUDY    60  60 100 NW3       29.90S FOG
GRANBURY       FOG       61  59  94 SW5       29.90S VSB 3/4
$$

WESTERN NORTH TEXAS

CITY           SKY/WX    TMP DP  RH WIND       PRES   REMARKS
WICHITA FALLS  PTCLDY    57  56  96 SW6       29.91S
VERNON         CLOUDY    57  53  87 CALM      29.93F
BRECKENRIDGE   CLOUDY    60  60  99 CALM      29.92R FOG
COMANCHE       FOG       61  61 100 CALM      29.92R VSB 3/4
$$

CENTRAL AND SOUTH CENTRAL TEXAS

CITY           SKY/WX    TMP DP  RH WIND       PRES   REMARKS
AUSTIN/BERGSTM CLOUDY    65  65 100 NE5       29.84F
WACO           CLOUDY    64  63  96 N5        29.87S
HILLSBORO      PTSUNNY   62  60  92 CALM      29.89R
TEMPLE         PTCLDY    59  55  88 N3        29.86S
KILLEEN-GRAY   FOG       60  59  99 N5        29.86S VSB 1/2
FORT HOOD      CLOUDY    61  60  98 N6        29.86R
GEORGETOWN     CLOUDY    63  61  94 N5        29.85S
LAGO VISTA     CLOUDY    64  63  94 NE3       29.87S FOG
SAN MARCOS     CLOUDY    66  63  88 NE5       29.85F
NEW BRAUNFELS  CLOUDY    67  65  93 CALM      29.84S
RANDOLPH AFB   CLOUDY    66  66 100 NE2       29.85S FOG
SAN ANTONIO    CLOUDY    68  65  90 CALM      29.86R
STINSON        CLOUDY    67  65  93 E3        29.84R FOG
PLEASANTON     NOT AVBL
LA GRANGE      CLOUDY    66  66 100 CALM      29.84R
GIDDINGS       FOG       66  65  97 CALM      29.88S VSB 1
$$

EAST TEXAS

CITY           SKY/WX    TMP DP  RH WIND       PRES   REMARKS
PARIS          CLOUDY    63  57  82 MISG      29.90F
CLARKSVILLE    NOT AVBL
TYLER          CLOUDY    65  62  90 CALM      29.88R
LONGVIEW       LGT RAIN  68  66  93 CALM      29.86S
PALESTINE      PTSUNNY   64  63  96 N5        29.89R
NACOGDOCHES    CLOUDY    66  64  94 N3        29.86S
$$

TEXAS HILL COUNTRY AND EDWARDS PLATEAU

CITY           SKY/WX    TMP DP  RH WIND       PRES   REMARKS
LLANO          CLOUDY    57  57 100 CALM      29.93R
HORSESHOE BAY  CLOUDY    61  61  99 CALM      29.87S
KERRVILLE      CLOUDY    61  60  96 CALM      29.89F FOG
FREDERICKSBRG  CLOUDY    62  61  96 CALM      29.89F
ROCKSPRINGS    CLOUDY    61  61 100 E3        29.94S FOG
HONDO          CLOUDY    65  63  93 N6        29.87F
UVALDE         NOT AVBL
DEL RIO        MOCLDY    64  63  96 CALM      29.89R
$$

SOUTHEAST TEXAS

CITY           SKY/WX    TMP DP  RH WIND       PRES   REMARKS
COLLEGE STN    MOCLDY    68  66  93 N3        29.85S
CALDWELL       CLOUDY    66  66 100 CALM      29.88S FOG
CROCKETT       PTSUNNY   70  70 100 CALM      29.88F FOG
BRENHAM        MOCLDY    67  67  98 N5        29.86R FOG
HUNTSVILLE     FOG       65  65 100 CALM      29.84S VSB 1/4
CONROE         MOCLDY    65  64  97 CALM      29.84R FOG
HOUSTON BUSH   CLOUDY    68  67  96 N5        29.82S
HOUSTON HOBBY  CLOUDY    70  68  94 N7        29.81R
PERLAND        NOT AVBL
WHARTON        CLOUDY    66  65  98 CALM      29.84S
$$

THE UPPER TEXAS COAST

CITY           SKY/WX    TMP DP  RH WIND       PRES   REMARKS
ORANGE         LGT RAIN  68  65  89 NE7       29.80F
PORT ARTHUR    CLOUDY    70  67  90 E7        29.80R
GALVESTON      NOT AVBL
ANGLETON       CLOUDY    68  68 100 CALM      29.81R
BAY CITY       CLOUDY    68  68 100 W3        29.82S
$$

TEXAS COASTAL BEND, RIO GRANDE PLAINS DEEP SOUTH TEXAS

CITY           SKY/WX    TMP DP  RH WIND       PRES   REMARKS
VICTORIA       CLOUDY    67  67 100 N6        29.84R
BEEVILLE       CLOUDY    69  69 100 CALM      29.83R
ROCKPORT       CLOUDY    71  69  93 N5        29.81S
PORT ARANSAS   CLOUDY    72  69  92 NE6       29.80R
PORT LAVACA    CLOUDY    67  66  96 N3        29.83R
CORPUS CHRISTI CLOUDY    70  67  90 N7        29.80R
KINGSVILLE NAS   N/A     71  70  96 S6        29.79S
COTULLA        CLOUDY    67  66  97 NE3       29.84F FOG
LAREDO         CLOUDY    68  68 100 N5        29.85S FOG
BROWNSVILLE    CLOUDY    75  73  93 NE9       29.82S FOG
PORT ISABEL    LGT RAIN  74  70  87 E7        29.81S
HEBBRONVILLE     N/A     67  66  97 CALM      29.83S FOG
MCALLEN        LGT RAIN  78  74  87 E16       29.78F FOG
WESLACO        CLOUDY    73  71  92 E8        29.81F FOG
FALFURRIAS     CLOUDY    69  67  93 SW3       29.80S
EDINBURG       CLOUDY    73  70  89 SE5       29.82R
$$



USA.gov is the U.S. government's official web portal to all federal, state and local government web resources and services.